Skip Page Navigation
NASA JPL Caltech
NASA Logo - Jet Propulsion Laboratory + View the NASA Portal
+ Near-Earth Object (NEO) Program
Search JPL
JPL Home Earth Solar System Stars & Galaxies Technology
JPL Solar System Dynamics
BODIES ORBITS EPHEMERIDES TOOLS PHYSICAL DATA DISCOVERY FAQ SITE MAP
JPL Small-Body Database Browser
Search: [ help ]  
6407 (1992 PF2)
Classification: Main-belt Asteroid          SPK-ID: 2006407
Ephemeris | Orbit Diagram | Orbital Elements | Physical Parameters | Discovery Circumstances | Close-Approach Data ]

[ show orbit diagram ]
Orbital Elements at Epoch 2456800.5 (2014-May-23.0) TDB
Reference: JPL 9 (heliocentric ecliptic J2000)
 Element Value Uncertainty (1-sigma)   Units 
e .1536582053151021 5.41e-08  
a 2.266000138662684 1.0779e-08 AU
q 1.917810624112003 1.2323e-07 AU
i 5.085363266899065 7.277e-06 deg
node 210.0071260955712 5.106e-05 deg
peri 49.88321022413042 5.5698e-05 deg
M 184.4401241959045 2.3308e-05 deg
tp 2457408.090660019862
(2016-Jan-20.59066002)
8.1943e-05 JED
period 1245.914743362148
3.41
8.8902e-06
2.434e-08
d
yr
n .2889443293916936 2.0618e-09 deg/d
Q 2.614189653213364 1.2436e-08 AU
  Orbit Determination Parameters
   # obs. used (total)      1222  
   data-arc span      22817 days (62.47 yr)  
   first obs. used      1951-09-22  
   last obs. used      2014-03-12  
   planetary ephem.      DE431  
   SB-pert. ephem.      SB431-BIG16  
   condition code      0  
   fit RMS      .48413  
   data source      ORB  
   producer      Otto Matic  
   solution date      2014-Jun-09 18:22:17  

Additional Information
 Earth MOID = .907312 AU 
 T_jup = 3.595 
[ show covariance matrix ]

Ephemeris | Orbit Diagram | Orbital Elements | Physical Parameters | Discovery Circumstances | Close-Approach Data ]

Physical Parameter Table
Parameter Symbol Value Units Sigma Reference Notes
absolute magnitude H 13.7 mag n/a MPO265992  
rotation period rot_per 3.14 h n/a Asteroid Lightcurve DataBase (Rev. 2013-Sep-12) Published Reference List:
[Behrend, R. (2009) Observatoire de Geneve web site, http://obswww.unige.ch/~behrend/page_cou.html]

6407 (1992 PF2)          Discovered 1992-Aug-02 by Holt, H. E. at Palomar (675)
Reference: DISCOVERY.DBLast Updated: 2003-08-29

[ show close-approach data ]
Alternate Designations
 1992 PF2 = 1976 YM3 = 1982 SU10 
Ephemeris | Orbit Diagram | Orbital Elements | Physical Parameters | Discovery Circumstances | Close-Approach Data ]
ABOUT SSD CREDITS/AWARDS PRIVACY/COPYRIGHT GLOSSARY LINKS
FirstGov 2014-Jul-24 21:36 UT
(server date/time)  
NASA Home Page
Site Manager:   Donald K. Yeomans
Webmaster  Alan B. Chamberlin